COSMOS 1275 DEB

Satellite information

Favourite Embed

Satellite Type and Status

DEBRISIN ORBIT

Key statistics

Satellite COSMOS 1275 DEB at a glance.

Uptime

16047

Days in orbit

Revolutions

≈ 13.6

Per day

Orbit

LEO

Low Earth Orbit

Inclination

82.9

Latest

Satellite identification and parameters

Extended collection of information and parameters for COSMOS 1275 DEB.

Object identification

Identified? True

Debris? True

Object name: COSMOS 1275 DEB

International designator: 1981-053JG

Object number (NORAD): 14440

Object ID (CCSDS): 14440

Country: COMMONWEALTH OF INDEPENDENT STATES (CIS)

Current information (Y/N): Y

RCS size: SMALL

Orbital parameters

Period: 105.574 minutes

Inclination: 82.9186 deg

SMA: 7399.43 km

Apoapsis: 1107.739 km

Periapsis: 934.851 km

RAAN: 130.3121 deg

Eccentricy: 0.0116825

Argument of periapsis: 73.187 deg

Mean anomaly: 78.5566 deg

Mean motion: 13.63971714 rev/day

Mean motion (dot): 0.00001059 rev/day2

B* drag term: 0.0012535 1/REarth

Two-line elements (TLE)

Creation date: May 10, 2025, 5:27 p.m.

Reference frame: TEME

Reference center: EARTH

Epoch: May 10, 2025, 11:15 a.m. UTC

TLE line 0: 0 COSMOS 1275 DEB

TLE line 1: 1 14440U 81053JG 25130.46900807 .00001059 00000-0 12535-2 0 9998

TLE line 2: 2 14440 82.9186 130.3121 0116825 73.1870 78.5566 13.63971714158664

Live tracking on map

Real-time ground track for satellite COSMOS 1275 DEB.

In-orbit conjunctions

A list of the most updated potential collisions computed for object COSMOS 1275 DEB.

Target Orbit TCA Probability of collision Miss distance Type
SL-24 R/B SSO 2025-05-08 08:45:15 0.0002673984 126.0 (m) ROCKET BODY
DELTA 1 DEB SSO 2025-03-23 06:00:57 0.000281723 70.0 (m) DEBRIS
SCOUT A-1 R/B LEO 2024-12-20 08:56:13 0.0001132902 493.0 (m) ROCKET BODY

Associated space launch

Navigation satellite providing location information for the Tsiklon-B navigation system

COSMOS 1275 DEB was lifted into orbit during the mission ‘Kosmos-3M | Parus 27’, on board a Kosmos-3M space rocket.

The launch took place on June 4, 1981, 3:41 p.m. from 132/2.

For more information about the launch, click the button.

Launch to space Kosmos-3M | Parus 27
Kosmos-3M | Parus 27

Agency: N/A

Status: Launch Successful

Launch date: June 4, 1981, 3:41 p.m. UTC

Rocket: Kosmos-3M

Launch pad: 132/2

Location: Plesetsk Cosmodrome, Russian Federation

...

Latest news about this satellite

There are no fresh news available about this satellite. Check back as we update our databases every day.


Newsletter sign-up

Weekly statistics, charts and insights to help you stay on top of the space industry.